Time,TemperatureF,DewpointF,PressureIn,WindDirection,WindDirectionDegrees,WindSpeedMPH,WindSpeedGustMPH,Humidity,HourlyPrecipIn,Conditions,Clouds,dailyrainin,SolarRadiationWatts/m^2,SoftwareType,DateUTC
2013-06-23 00:01:00,77.4,71.0,29.83,SSE,163,0.0,6.0,79,0.00,,,0.00,0,Custom,2013-06-23 05:01:00,
2013-06-23 00:06:00,77.5,71.0,29.83,South,181,0.0,6.0,80,0.00,,,0.00,0,Custom,2013-06-23 05:06:00,
2013-06-23 00:11:00,77.2,71.0,29.84,South,180,0.0,2.0,80,0.00,,,0.00,0,Custom,2013-06-23 05:11:00,
2013-06-23 00:16:00,77.0,71.0,29.83,SSW,199,0.0,4.0,81,0.00,,,0.00,0,Custom,2013-06-23 05:16:00,
2013-06-23 00:21:00,77.2,71.0,29.83,SSW,194,0.0,7.0,81,0.00,,,0.00,0,Custom,2013-06-23 05:21:00,
2013-06-23 00:26:00,77.0,71.0,29.84,SSW,194,0.0,3.0,82,0.00,,,0.00,0,Custom,2013-06-23 05:26:00,
2013-06-23 00:31:00,77.0,71.0,29.84,SSW,197,0.0,7.0,81,0.00,,,0.00,0,Custom,2013-06-23 05:31:00,
2013-06-23 00:37:00,76.9,71.0,29.83,South,183,4.0,5.0,81,0.00,,,0.00,0,Custom,2013-06-23 05:37:00,
2013-06-23 00:42:00,77.1,71.0,29.83,SSW,196,0.0,6.0,81,0.00,,,0.00,0,Custom,2013-06-23 05:42:00,
2013-06-23 00:47:00,77.0,71.0,29.82,South,186,0.0,8.0,81,0.00,,,0.00,0,Custom,2013-06-23 05:47:00,
2013-06-23 00:52:00,77.0,71.0,29.82,South,187,0.0,6.0,81,0.00,,,0.00,0,Custom,2013-06-23 05:52:00,
2013-06-23 00:57:00,77.0,71.0,29.81,South,173,0.0,4.0,80,0.00,,,0.00,0,Custom,2013-06-23 05:57:00,
2013-06-23 01:02:00,77.2,71.0,29.81,South,178,0.0,7.0,81,0.00,,,0.00,0,Custom,2013-06-23 06:02:00,
2013-06-23 01:03:00,77.2,71.0,29.81,South,178,0.0,7.0,81,0.00,,,0.00,0,Custom,2013-06-23 06:03:00,
2013-06-23 01:08:00,77.0,71.0,29.81,SW,222,3.0,8.0,81,0.00,,,0.00,0,Custom,2013-06-23 06:08:00,
2013-06-23 01:13:00,77.2,70.0,29.81,SSE,165,0.0,7.0,80,0.00,,,0.00,0,Custom,2013-06-23 06:13:00,
2013-06-23 01:18:00,77.2,71.0,29.81,South,190,8.0,8.0,80,0.00,,,0.00,0,Custom,2013-06-23 06:18:00,
2013-06-23 01:23:00,77.2,71.0,29.81,South,177,0.0,8.0,80,0.00,,,0.00,0,Custom,2013-06-23 06:23:00,
2013-06-23 01:28:00,77.0,70.0,29.80,SSW,192,7.0,7.0,80,0.00,,,0.00,0,Custom,2013-06-23 06:28:00,
2013-06-23 01:33:00,77.2,70.0,29.80,South,172,0.0,7.0,80,0.00,,,0.00,0,Custom,2013-06-23 06:33:00,
2013-06-23 01:38:00,76.9,70.0,29.80,South,184,0.0,8.0,80,0.00,,,0.00,0,Custom,2013-06-23 06:38:00,
2013-06-23 01:43:00,76.9,70.0,29.80,South,181,0.0,9.0,80,0.00,,,0.00,0,Custom,2013-06-23 06:43:00,
2013-06-23 01:48:00,76.9,70.0,29.80,South,175,0.0,9.0,80,0.00,,,0.00,0,Custom,2013-06-23 06:48:00,
2013-06-23 01:53:00,76.9,70.0,29.80,South,176,6.0,8.0,80,0.00,,,0.00,0,Custom,2013-06-23 06:53:00,
2013-06-23 01:58:00,76.9,70.0,29.80,South,173,0.0,8.0,79,0.00,,,0.00,0,Custom,2013-06-23 06:58:00,
2013-06-23 02:03:00,76.9,70.0,29.79,South,186,7.0,10.0,80,0.00,,,0.00,0,Custom,2013-06-23 07:03:00,
2013-06-23 02:08:00,76.9,70.0,29.78,SSW,197,6.0,9.0,80,0.00,,,0.00,0,Custom,2013-06-23 07:08:00,
2013-06-23 02:13:00,76.9,70.0,29.78,South,189,0.0,9.0,80,0.00,,,0.00,0,Custom,2013-06-23 07:13:00,
2013-06-23 02:18:00,76.8,70.0,29.79,South,170,0.0,9.0,79,0.00,,,0.00,0,Custom,2013-06-23 07:18:00,
2013-06-23 02:23:00,76.3,70.0,29.79,South,188,4.0,9.0,80,0.00,,,0.00,0,Custom,2013-06-23 07:23:00,
2013-06-23 02:28:00,76.2,70.0,29.79,South,189,0.0,8.0,81,0.00,,,0.00,0,Custom,2013-06-23 07:28:00,
2013-06-23 02:33:00,76.0,70.0,29.79,SE,145,5.0,8.0,82,0.00,,,0.00,0,Custom,2013-06-23 07:33:00,
2013-06-23 02:38:00,75.7,70.0,29.78,South,185,0.0,8.0,82,0.00,,,0.00,0,Custom,2013-06-23 07:38:00,
2013-06-23 02:43:00,75.6,70.0,29.79,SSE,167,0.0,8.0,82,0.00,,,0.00,0,Custom,2013-06-23 07:43:00,
2013-06-23 02:48:00,75.5,70.0,29.79,South,172,7.0,7.0,82,0.00,,,0.00,0,Custom,2013-06-23 07:48:00,
2013-06-23 02:53:00,75.6,70.0,29.79,SSW,193,0.0,10.0,83,0.00,,,0.00,0,Custom,2013-06-23 07:53:00,
2013-06-23 02:58:00,75.2,70.0,29.79,South,185,4.0,4.0,83,0.00,,,0.00,0,Custom,2013-06-23 07:58:00,
2013-06-23 03:03:00,75.2,70.0,29.79,South,188,0.0,6.0,83,0.00,,,0.00,0,Custom,2013-06-23 08:03:00,
2013-06-23 03:08:00,75.4,70.0,29.80,SSW,195,1.0,10.0,82,0.00,,,0.00,0,Custom,2013-06-23 08:08:00,
2013-06-23 03:13:00,75.2,70.0,29.80,South,173,0.0,4.0,83,0.00,,,0.00,0,Custom,2013-06-23 08:13:00,
2013-06-23 03:18:00,75.2,69.0,29.79,South,188,0.0,5.0,83,0.00,,,0.00,0,Custom,2013-06-23 08:18:00,
2013-06-23 03:23:00,75.0,70.0,29.80,South,190,0.0,6.0,83,0.00,,,0.00,0,Custom,2013-06-23 08:23:00,
2013-06-23 03:28:00,74.8,69.0,29.80,South,182,0.0,5.0,84,0.00,,,0.00,0,Custom,2013-06-23 08:28:00,
2013-06-23 03:33:00,74.8,69.0,29.80,South,182,0.0,4.0,84,0.00,,,0.00,0,Custom,2013-06-23 08:33:00,
2013-06-23 03:38:00,74.7,69.0,29.80,South,175,0.0,4.0,84,0.00,,,0.00,0,Custom,2013-06-23 08:38:00,
2013-06-23 03:43:00,74.6,70.0,29.80,South,178,0.0,4.0,84,0.00,,,0.00,0,Custom,2013-06-23 08:43:00,
2013-06-23 03:48:00,74.4,69.0,29.80,South,181,0.0,5.0,85,0.00,,,0.00,0,Custom,2013-06-23 08:48:00,
2013-06-23 03:53:00,74.2,69.0,29.80,South,181,0.0,3.0,85,0.00,,,0.00,0,Custom,2013-06-23 08:53:00,
2013-06-23 03:58:00,74.0,69.0,29.80,South,181,0.0,0.0,85,0.00,,,0.00,0,Custom,2013-06-23 08:58:00,
2013-06-23 04:03:00,73.9,69.0,29.80,South,181,0.0,0.0,86,0.00,,,0.00,0,Custom,2013-06-23 09:03:00,
2013-06-23 04:08:00,73.6,69.0,29.80,SSE,161,0.0,2.0,86,0.00,,,0.00,0,Custom,2013-06-23 09:08:00,
2013-06-23 04:13:00,73.5,69.0,29.80,SSE,161,0.0,2.0,86,0.00,,,0.00,0,Custom,2013-06-23 09:13:00,
2013-06-23 04:18:00,73.5,69.0,29.80,SSW,192,0.0,4.0,86,0.00,,,0.00,0,Custom,2013-06-23 09:18:00,
2013-06-23 04:23:00,73.6,69.0,29.80,SSW,196,0.0,6.0,86,0.00,,,0.00,0,Custom,2013-06-23 09:23:00,
2013-06-23 04:28:00,73.3,69.0,29.80,SSE,168,0.0,4.0,87,0.00,,,0.00,0,Custom,2013-06-23 09:28:00,
2013-06-23 04:33:00,73.5,69.0,29.80,South,173,0.0,4.0,87,0.00,,,0.00,0,Custom,2013-06-23 09:33:00,
2013-06-23 04:38:00,73.4,69.0,29.80,South,188,0.0,4.0,88,0.00,,,0.00,0,Custom,2013-06-23 09:38:00,
2013-06-23 04:43:00,73.3,69.0,29.80,SSW,197,0.0,4.0,87,0.00,,,0.00,0,Custom,2013-06-23 09:43:00,
2013-06-23 04:48:00,73.2,69.0,29.80,SSW,197,0.0,3.0,87,0.00,,,0.00,0,Custom,2013-06-23 09:48:00,
2013-06-23 04:53:00,73.1,69.0,29.81,SSW,193,0.0,2.0,87,0.00,,,0.00,0,Custom,2013-06-23 09:53:00,
2013-06-23 04:58:00,73.1,69.0,29.80,SSW,193,0.0,3.0,87,0.00,,,0.00,0,Custom,2013-06-23 09:58:00,
2013-06-23 05:03:00,73.1,69.0,29.80,South,191,0.0,5.0,87,0.00,,,0.00,0,Custom,2013-06-23 10:03:00,
2013-06-23 05:08:00,73.2,69.0,29.80,South,180,0.0,8.0,88,0.00,,,0.00,0,Custom,2013-06-23 10:08:00,
2013-06-23 05:13:00,73.1,69.0,29.80,South,173,1.0,7.0,88,0.00,,,0.00,0,Custom,2013-06-23 10:13:00,
2013-06-23 05:18:00,73.2,69.0,29.80,South,176,0.0,7.0,87,0.00,,,0.00,0,Custom,2013-06-23 10:18:00,
2013-06-23 05:23:00,72.9,69.0,29.80,South,188,4.0,5.0,87,0.00,,,0.00,0,Custom,2013-06-23 10:23:00,
2013-06-23 05:28:00,73.0,69.0,29.80,SSE,166,2.0,7.0,88,0.00,,,0.00,0,Custom,2013-06-23 10:28:00,
2013-06-23 05:33:00,73.1,69.0,29.80,South,187,0.0,9.0,88,0.00,,,0.00,0,Custom,2013-06-23 10:33:00,
2013-06-23 05:38:00,73.0,69.0,29.80,South,183,3.0,7.0,87,0.00,,,0.00,0,Custom,2013-06-23 10:38:00,
2013-06-23 05:43:00,72.9,69.0,29.80,South,169,3.0,4.0,88,0.00,,,0.00,0,Custom,2013-06-23 10:43:00,
2013-06-23 05:48:00,72.9,69.0,29.80,SSW,206,9.0,9.0,89,0.00,,,0.00,0,Custom,2013-06-23 10:48:00,
2013-06-23 05:53:00,73.0,69.0,29.80,South,185,0.0,9.0,88,0.00,,,0.00,0,Custom,2013-06-23 10:53:00,
2013-06-23 05:58:00,73.0,69.0,29.80,SSE,164,7.0,7.0,88,0.00,,,0.00,0,Custom,2013-06-23 10:58:00,
2013-06-23 06:03:00,73.1,69.0,29.80,South,171,4.0,6.0,88,0.00,,,0.00,8.58,Custom,2013-06-23 11:03:00,
2013-06-23 06:08:00,73.3,69.0,29.80,SSE,168,8.0,8.0,88,0.00,,,0.00,14.43,Custom,2013-06-23 11:08:00,
2013-06-23 06:13:00,73.5,69.0,29.79,South,189,3.0,7.0,87,0.00,,,0.00,19.89,Custom,2013-06-23 11:13:00,
2013-06-23 06:18:00,73.6,69.0,29.79,South,177,0.0,7.0,87,0.00,,,0.00,25.74,Custom,2013-06-23 11:18:00,
2013-06-23 06:23:00,73.9,69.0,29.79,SSW,213,0.0,9.0,86,0.00,,,0.00,30.81,Custom,2013-06-23 11:23:00,
2013-06-23 06:28:00,74.0,70.0,29.78,South,179,0.0,7.0,86,0.00,,,0.00,35.88,Custom,2013-06-23 11:28:00,
2013-06-23 06:33:00,74.2,70.0,29.79,South,186,7.0,7.0,86,0.00,,,0.00,39.39,Custom,2013-06-23 11:33:00,
2013-06-23 06:38:00,74.6,70.0,29.79,South,187,0.0,8.0,85,0.00,,,0.00,43.29,Custom,2013-06-23 11:38:00,
2013-06-23 06:43:00,74.9,70.0,29.79,SSW,195,3.0,11.0,85,0.00,,,0.00,45.24,Custom,2013-06-23 11:43:00,
2013-06-23 06:48:00,75.1,70.0,29.78,South,187,3.0,7.0,85,0.00,,,0.00,46.8,Custom,2013-06-23 11:48:00,
2013-06-23 06:53:00,75.6,70.0,29.78,SSW,194,5.0,9.0,84,0.00,,,0.00,47.58,Custom,2013-06-23 11:53:00,
2013-06-23 06:58:00,75.9,71.0,29.78,SSE,152,4.0,11.0,83,0.00,,,0.00,48.75,Custom,2013-06-23 11:58:00,
2013-06-23 07:03:00,75.9,70.0,29.79,South,189,0.0,7.0,83,0.00,,,0.00,46.8,Custom,2013-06-23 12:03:00,
2013-06-23 07:08:00,76.1,70.0,29.78,SSE,154,11.0,11.0,82,0.00,,,0.00,50.31,Custom,2013-06-23 12:08:00,
2013-06-23 07:13:00,76.3,70.0,29.78,SSW,204,3.0,10.0,82,0.00,,,0.00,58.5,Custom,2013-06-23 12:13:00,
2013-06-23 07:18:00,76.9,71.0,29.79,South,187,0.0,12.0,81,0.00,,,0.00,81.51,Custom,2013-06-23 12:18:00,
2013-06-23 07:23:00,77.5,71.0,29.78,South,178,5.0,10.0,80,0.00,,,0.00,112.71,Custom,2013-06-23 12:23:00,
2013-06-23 07:28:00,77.8,71.0,29.78,SSE,149,4.0,12.0,78,0.00,,,0.00,135.72,Custom,2013-06-23 12:28:00,
2013-06-23 07:33:00,78.8,71.0,29.78,South,188,3.0,12.0,78,0.00,,,0.00,157.56,Custom,2013-06-23 12:33:00,
2013-06-23 07:38:00,78.8,71.0,29.78,South,188,0.0,11.0,76,0.00,,,0.00,153.27,Custom,2013-06-23 12:38:00,
2013-06-23 07:43:00,78.9,71.0,29.78,SW,215,0.0,9.0,76,0.00,,,0.00,161.46,Custom,2013-06-23 12:43:00,
2013-06-23 07:48:00,79.0,71.0,29.78,South,179,0.0,11.0,76,0.00,,,0.00,159.9,Custom,2013-06-23 12:48:00,
2013-06-23 07:53:00,79.1,71.0,29.78,South,188,5.0,10.0,75,0.00,,,0.00,171.21,Custom,2013-06-23 12:53:00,
2013-06-23 07:58:00,79.0,71.0,29.78,South,187,7.0,12.0,76,0.00,,,0.00,179.79,Custom,2013-06-23 12:58:00,
2013-06-23 08:03:00,79.1,71.0,29.78,South,189,7.0,12.0,76,0.00,,,0.00,184.86,Custom,2013-06-23 13:03:00,
2013-06-23 08:08:00,79.1,71.0,29.79,SSW,193,5.0,12.0,76,0.00,,,0.00,202.02,Custom,2013-06-23 13:08:00,
2013-06-23 08:13:00,79.2,71.0,29.78,South,173,6.0,11.0,75,0.00,,,0.00,214.89,Custom,2013-06-23 13:13:00,
2013-06-23 08:18:00,79.5,71.0,29.78,South,189,4.0,12.0,75,0.00,,,0.00,237.12,Custom,2013-06-23 13:18:00,
2013-06-23 08:23:00,79.6,71.0,29.79,South,189,4.0,15.0,75,0.00,,,0.00,251.94,Custom,2013-06-23 13:23:00,
2013-06-23 08:28:00,79.8,71.0,29.79,South,183,4.0,16.0,75,0.00,,,0.00,272.22,Custom,2013-06-23 13:28:00,
2013-06-23 08:33:00,80.0,71.0,29.80,South,181,9.0,12.0,74,0.00,,,0.00,258.96,Custom,2013-06-23 13:33:00,
2013-06-23 08:38:00,80.0,71.0,29.80,SW,216,11.0,12.0,74,0.00,,,0.00,253.11,Custom,2013-06-23 13:38:00,
2013-06-23 08:43:00,80.1,71.0,29.80,South,180,6.0,15.0,73,0.00,,,0.00,281.97,Custom,2013-06-23 13:43:00,
2013-06-23 08:48:00,80.2,71.0,29.80,SSW,197,5.0,16.0,74,0.00,,,0.00,289.38,Custom,2013-06-23 13:48:00,
2013-06-23 08:53:00,80.7,72.0,29.80,South,189,5.0,8.0,74,0.00,,,0.00,336.96,Custom,2013-06-23 13:53:00,
2013-06-23 08:58:00,81.1,71.0,29.80,SSW,207,1.0,9.0,73,0.00,,,0.00,348.66,Custom,2013-06-23 13:58:00,
2013-06-23 09:03:00,81.7,72.0,29.80,South,171,7.0,14.0,73,0.00,,,0.00,364.26,Custom,2013-06-23 14:03:00,
2013-06-23 09:08:00,81.9,72.0,29.80,South,191,4.0,10.0,72,0.00,,,0.00,388.83,Custom,2013-06-23 14:08:00,
2013-06-23 09:13:00,82.0,72.0,29.81,South,183,2.0,9.0,72,0.00,,,0.00,411.84,Custom,2013-06-23 14:13:00,
2013-06-23 09:18:00,82.2,72.0,29.82,South,186,0.0,7.0,72,0.00,,,0.00,253.89,Custom,2013-06-23 14:18:00,
2013-06-23 09:23:00,81.3,72.0,29.82,SSW,203,4.0,13.0,72,0.00,,,0.00,291.72,Custom,2013-06-23 14:23:00,
2013-06-23 09:28:00,82.0,73.0,29.82,South,186,0.0,8.0,73,0.00,,,0.00,316.29,Custom,2013-06-23 14:28:00,
2013-06-23 09:33:00,81.5,72.0,29.82,South,181,0.0,8.0,72,0.00,,,0.00,168.48,Custom,2013-06-23 14:33:00,
2013-06-23 09:39:00,81.0,72.0,29.83,SW,216,0.0,6.0,73,0.00,,,0.00,138.45,Custom,2013-06-23 14:39:00,
2013-06-23 09:44:00,80.6,72.0,29.83,South,191,3.0,8.0,74,0.00,,,0.00,142.35,Custom,2013-06-23 14:44:00,
2013-06-23 09:49:00,80.6,72.0,29.83,SW,227,0.0,7.0,74,0.00,,,0.00,151.71,Custom,2013-06-23 14:49:00,
2013-06-23 09:54:00,80.7,72.0,29.83,South,182,3.0,5.0,75,0.00,,,0.00,149.37,Custom,2013-06-23 14:54:00,
2013-06-23 09:59:00,80.7,72.0,29.82,South,177,5.0,5.0,76,0.00,,,0.00,180.96,Custom,2013-06-23 14:59:00,
2013-06-23 10:04:00,81.0,72.0,29.82,South,186,0.0,7.0,75,0.00,,,0.00,205.53,Custom,2013-06-23 15:04:00,
2013-06-23 10:09:00,81.8,73.0,29.83,South,172,0.0,6.0,74,0.00,,,0.00,288.21,Custom,2013-06-23 15:09:00,
2013-06-23 10:14:00,82.7,74.0,29.82,South,176,0.0,6.0,74,0.00,,,0.00,297.96,Custom,2013-06-23 15:14:00,
2013-06-23 10:19:00,83.1,74.0,29.82,South,191,0.0,10.0,73,0.00,,,0.00,349.83,Custom,2013-06-23 15:19:00,
2013-06-23 10:24:00,83.3,73.0,29.82,SE,146,0.0,6.0,72,0.00,,,0.00,336.18,Custom,2013-06-23 15:24:00,
2013-06-23 10:29:00,83.4,73.0,29.83,SSW,201,0.0,4.0,72,0.00,,,0.00,430.95,Custom,2013-06-23 15:29:00,
2013-06-23 10:34:00,83.8,73.0,29.83,South,188,0.0,4.0,70,0.00,,,0.00,424.71,Custom,2013-06-23 15:34:00,
2013-06-23 10:39:00,84.5,74.0,29.83,South,189,0.0,5.0,70,0.00,,,0.00,336.96,Custom,2013-06-23 15:39:00,
2013-06-23 10:44:00,84.3,73.0,29.83,South,172,0.0,1.0,70,0.00,,,0.00,312.78,Custom,2013-06-23 15:44:00,
2013-06-23 10:49:00,84.3,73.0,29.83,South,177,0.0,6.0,69,0.00,,,0.00,407.94,Custom,2013-06-23 15:49:00,
2013-06-23 10:54:00,85.1,74.0,29.84,South,180,0.0,5.0,69,0.00,,,0.00,366.99,Custom,2013-06-23 15:54:00,
2013-06-23 11:00:00,85.3,73.0,29.85,South,180,0.0,4.0,68,0.00,,,0.00,258.18,Custom,2013-06-23 16:00:00,
2013-06-23 11:05:00,84.3,73.0,29.84,SSW,196,6.0,6.0,68,0.00,,,0.00,246.09,Custom,2013-06-23 16:05:00,
2013-06-23 11:10:00,83.7,73.0,29.83,South,182,0.0,6.0,70,0.00,,,0.00,230.1,Custom,2013-06-23 16:10:00,
2013-06-23 11:15:00,83.5,73.0,29.84,South,180,0.0,6.0,71,0.00,,,0.00,223.86,Custom,2013-06-23 16:15:00,
2013-06-23 11:20:00,83.6,73.0,29.85,SSW,212,0.0,5.0,71,0.00,,,0.00,222.69,Custom,2013-06-23 16:20:00,
2013-06-23 11:25:00,83.7,73.0,29.85,SSW,212,0.0,0.0,70,0.00,,,0.00,189.93,Custom,2013-06-23 16:25:00,
2013-06-23 11:31:00,83.8,73.0,29.85,SSW,212,0.0,0.0,70,0.00,,,0.00,182.52,Custom,2013-06-23 16:31:00,
2013-06-23 11:36:00,83.8,74.0,29.85,SSW,212,0.0,0.0,72,0.00,,,0.00,196.56,Custom,2013-06-23 16:36:00,
2013-06-23 11:41:00,83.7,74.0,29.85,SSW,212,0.0,1.0,72,0.00,,,0.00,159.9,Custom,2013-06-23 16:41:00,
2013-06-23 11:46:00,83.6,73.0,29.85,SSW,212,0.0,0.0,72,0.00,,,0.00,145.86,Custom,2013-06-23 16:46:00,
2013-06-23 11:51:00,83.3,73.0,29.85,SSW,212,0.0,0.0,71,0.00,,,0.00,132.99,Custom,2013-06-23 16:51:00,
2013-06-23 11:56:00,83.4,74.0,29.85,SSW,212,0.0,0.0,73,0.00,,,0.00,171.99,Custom,2013-06-23 16:56:00,
2013-06-23 11:57:00,83.4,74.0,29.85,SSW,212,0.0,0.0,74,0.00,,,0.00,185.25,Custom,2013-06-23 16:57:00,
2013-06-23 11:58:00,83.4,74.0,29.85,SSW,212,0.0,0.0,74,0.00,,,0.00,185.25,Custom,2013-06-23 16:58:00,
2013-06-23 11:59:00,83.4,74.0,29.85,SSW,212,0.0,0.0,74,0.00,,,0.00,198.51,Custom,2013-06-23 16:59:00,
2013-06-23 12:00:00,83.4,74.0,29.85,SSW,212,0.0,1.0,73,0.00,,,0.00,213.72,Custom,2013-06-23 17:00:00,
2013-06-23 12:05:00,83.7,74.0,29.85,SSW,212,0.0,1.0,72,0.00,,,0.00,234.78,Custom,2013-06-23 17:05:00,
2013-06-23 12:10:00,84.4,74.0,29.85,SSW,212,0.0,1.0,72,0.00,,,0.00,237.12,Custom,2013-06-23 17:10:00,
2013-06-23 12:15:00,84.8,74.0,29.85,SSW,212,0.0,0.0,71,0.00,,,0.00,248.04,Custom,2013-06-23 17:15:00,
2013-06-23 12:20:00,85.0,74.0,29.85,SSW,212,0.0,0.0,69,0.00,,,0.00,280.02,Custom,2013-06-23 17:20:00,
2013-06-23 12:25:00,85.6,74.0,29.85,SSW,212,0.0,0.0,68,0.00,,,0.00,256.23,Custom,2013-06-23 17:25:00,
2013-06-23 12:30:00,85.2,73.0,29.85,SSW,211,0.0,1.0,68,0.00,,,0.00,292.5,Custom,2013-06-23 17:30:00,
2013-06-23 12:35:00,85.3,74.0,29.85,SSW,211,0.0,1.0,70,0.00,,,0.00,351.39,Custom,2013-06-23 17:35:00,
2013-06-23 12:40:00,85.9,74.0,29.85,SSW,211,0.0,0.0,68,0.00,,,0.00,304.98,Custom,2013-06-23 17:40:00,
2013-06-23 12:45:00,86.0,74.0,29.85,SSW,211,0.0,0.0,68,0.00,,,0.00,285.48,Custom,2013-06-23 17:45:00,
2013-06-23 12:50:00,86.1,73.0,29.85,SSW,211,0.0,0.0,66,0.00,,,0.00,290.55,Custom,2013-06-23 17:50:00,
2013-06-23 12:55:00,85.9,73.0,29.85,SSW,209,0.0,0.0,66,0.00,,,0.00,317.46,Custom,2013-06-23 17:55:00,
2013-06-23 13:00:00,85.6,73.0,29.85,SE,145,0.0,0.0,67,0.00,,,0.00,247.26,Custom,2013-06-23 18:00:00,
2013-06-23 13:05:00,85.5,74.0,29.85,SE,145,0.0,0.0,68,0.00,,,0.00,237.12,Custom,2013-06-23 18:05:00,
2013-06-23 13:10:00,85.4,74.0,29.85,SE,145,0.0,0.0,68,0.00,,,0.00,210.99,Custom,2013-06-23 18:10:00,
2013-06-23 13:15:00,84.9,73.0,29.85,SE,145,0.0,0.0,68,0.00,,,0.00,162.63,Custom,2013-06-23 18:15:00,
2013-06-23 13:20:00,85.1,74.0,29.85,SE,145,0.0,0.0,70,0.00,,,0.00,209.04,Custom,2013-06-23 18:20:00,
2013-06-23 13:25:00,85.3,74.0,29.84,SE,145,0.0,0.0,68,0.00,,,0.00,249.6,Custom,2013-06-23 18:25:00,
2013-06-23 13:30:00,85.9,74.0,29.84,SE,145,0.0,0.0,68,0.00,,,0.00,283.92,Custom,2013-06-23 18:30:00,
2013-06-23 13:35:00,86.3,74.0,29.84,SE,144,0.0,0.0,68,0.00,,,0.00,271.83,Custom,2013-06-23 18:35:00,
2013-06-23 13:40:00,86.8,75.0,29.84,SE,144,0.0,0.0,67,0.00,,,0.00,299.52,Custom,2013-06-23 18:40:00,
2013-06-23 13:45:00,87.5,74.0,29.83,SE,144,0.0,2.0,64,0.00,,,0.00,441.87,Custom,2013-06-23 18:45:00,
2013-06-23 13:50:00,88.2,75.0,29.83,SE,144,2.0,0.0,65,0.00,,,0.00,425.49,Custom,2013-06-23 18:50:00,
2013-06-23 13:55:00,87.8,73.0,29.83,SE,143,0.0,2.0,61,0.00,,,0.00,398.19,Custom,2013-06-23 18:55:00,
2013-06-23 14:00:00,87.5,74.0,29.83,SE,143,0.0,0.0,64,0.00,,,0.00,324.09,Custom,2013-06-23 19:00:00,
2013-06-23 14:05:00,87.6,73.0,29.83,SE,143,0.0,0.0,63,0.00,,,0.00,374.79,Custom,2013-06-23 19:05:00,
2013-06-23 14:10:00,88.2,75.0,29.82,SE,143,0.0,0.0,66,0.00,,,0.00,350.22,Custom,2013-06-23 19:10:00,
2013-06-23 14:15:00,88.2,75.0,29.83,SE,143,0.0,0.0,66,0.00,,,0.00,234.39,Custom,2013-06-23 19:15:00,
2013-06-23 14:20:00,88.2,74.0,29.82,WSW,254,0.0,2.0,64,0.00,,,0.00,819.78,Custom,2013-06-23 19:20:00,
2013-06-23 14:25:00,89.8,76.0,29.82,SSW,199,4.0,4.0,63,0.00,,,0.00,563.16,Custom,2013-06-23 19:25:00,
2013-06-23 14:30:00,90.3,76.0,29.82,SSW,195,0.0,4.0,63,0.00,,,0.00,653.64,Custom,2013-06-23 19:30:00,
2013-06-23 14:35:00,89.8,75.0,29.82,South,187,0.0,4.0,61,0.00,,,0.00,739.05,Custom,2013-06-23 19:35:00,
2013-06-23 14:40:00,90.2,74.0,29.82,SSW,196,3.0,5.0,60,0.00,,,0.00,647.4,Custom,2013-06-23 19:40:00,
2013-06-23 14:45:00,90.5,77.0,29.82,South,187,3.0,5.0,65,0.00,,,0.00,820.56,Custom,2013-06-23 19:45:00,
2013-06-23 14:50:00,91.4,75.0,29.81,SSE,166,0.0,6.0,60,0.00,,,0.00,759.72,Custom,2013-06-23 19:50:00,
2013-06-23 14:55:00,90.3,76.0,29.81,SSW,206,0.0,5.0,64,0.00,,,0.00,761.28,Custom,2013-06-23 19:55:00,
2013-06-23 15:00:00,91.2,76.0,29.80,SW,235,5.0,5.0,62,0.00,,,0.00,742.56,Custom,2013-06-23 20:00:00,
2013-06-23 15:05:00,91.2,76.0,29.79,South,181,5.0,8.0,61,0.00,,,0.00,737.88,Custom,2013-06-23 20:05:00,
2013-06-23 15:10:00,90.4,74.0,29.78,SSW,210,4.0,10.0,58,0.00,,,0.00,315.12,Custom,2013-06-23 20:10:00,
2013-06-23 15:15:00,89.3,76.0,29.76,South,188,0.0,8.0,66,0.00,,,0.00,815.49,Custom,2013-06-23 20:15:00,
2013-06-23 15:20:00,91.0,78.0,29.76,SW,225,0.0,7.0,65,0.00,,,0.00,794.43,Custom,2013-06-23 20:20:00,
2013-06-23 15:25:00,91.6,76.0,29.75,South,189,3.0,8.0,61,0.00,,,0.00,799.89,Custom,2013-06-23 20:25:00,
2013-06-23 15:30:00,91.0,75.0,29.75,SSE,153,8.0,10.0,60,0.00,,,0.00,781.17,Custom,2013-06-23 20:30:00,
2013-06-23 15:35:00,91.3,75.0,29.73,SW,215,4.0,13.0,59,0.00,,,0.00,753.09,Custom,2013-06-23 20:35:00,
2013-06-23 15:40:00,89.7,74.0,29.73,South,190,11.0,12.0,60,0.00,,,0.00,333.06,Custom,2013-06-23 20:40:00,
2013-06-23 15:45:00,89.3,74.0,29.72,South,184,9.0,13.0,62,0.00,,,0.00,322.92,Custom,2013-06-23 20:45:00,
2013-06-23 15:50:00,88.6,74.0,29.72,SE,134,4.0,14.0,61,0.00,,,0.00,346.71,Custom,2013-06-23 20:50:00,
2013-06-23 15:55:00,88.9,73.0,29.72,SSE,168,5.0,13.0,60,0.00,,,0.00,582.66,Custom,2013-06-23 20:55:00,
2013-06-23 16:00:00,89.0,74.0,29.72,SE,145,11.0,14.0,61,0.00,,,0.00,459.42,Custom,2013-06-23 21:00:00,
2013-06-23 16:05:00,88.9,73.0,29.71,South,190,11.0,20.0,59,0.00,,,0.00,451.23,Custom,2013-06-23 21:05:00,
2013-06-23 16:10:00,89.2,74.0,29.71,West,261,8.0,18.0,62,0.00,,,0.00,702.78,Custom,2013-06-23 21:10:00,
2013-06-23 16:15:00,90.1,74.0,29.71,SSE,160,11.0,18.0,59,0.00,,,0.00,712.53,Custom,2013-06-23 21:15:00,
2013-06-23 16:20:00,90.8,74.0,29.72,SSW,194,3.0,11.0,58,0.00,,,0.00,503.88,Custom,2013-06-23 21:20:00,
2013-06-23 16:25:00,90.4,74.0,29.72,SSW,192,5.0,13.0,59,0.00,,,0.00,645.45,Custom,2013-06-23 21:25:00,
2013-06-23 16:30:00,90.3,73.0,29.72,SSW,192,7.0,17.0,56,0.00,,,0.00,383.37,Custom,2013-06-23 21:30:00,
2013-06-23 16:35:00,89.2,71.0,29.72,SE,138,4.0,16.0,56,0.00,,,0.00,379.08,Custom,2013-06-23 21:35:00,
2013-06-23 16:40:00,90.1,73.0,29.73,SSW,198,3.0,12.0,57,0.00,,,0.00,494.13,Custom,2013-06-23 21:40:00,
2013-06-23 16:45:00,90.2,73.0,29.74,SSW,198,8.0,19.0,58,0.00,,,0.00,326.04,Custom,2013-06-23 21:45:00,
2013-06-23 16:50:00,89.3,72.0,29.75,SSW,199,0.0,15.0,57,0.00,,,0.00,418.86,Custom,2013-06-23 21:50:00,
2013-06-23 16:55:00,89.4,72.0,29.75,South,188,0.0,11.0,57,0.00,,,0.00,278.85,Custom,2013-06-23 21:55:00,
2013-06-23 17:00:00,89.0,72.0,29.76,SSW,192,9.0,14.0,57,0.00,,,0.00,274.56,Custom,2013-06-23 22:00:00,
2013-06-23 17:05:00,88.9,71.0,29.76,South,186,5.0,10.0,56,0.00,,,0.00,230.49,Custom,2013-06-23 22:05:00,
2013-06-23 17:10:00,88.5,72.0,29.76,SSW,213,0.0,9.0,58,0.00,,,0.00,186.81,Custom,2013-06-23 22:10:00,
2013-06-23 17:15:00,89.0,72.0,29.76,SSW,193,0.0,11.0,58,0.00,,,0.00,466.05,Custom,2013-06-23 22:15:00,
2013-06-23 17:20:00,90.2,73.0,29.76,South,184,0.0,4.0,57,0.00,,,0.00,537.81,Custom,2013-06-23 22:20:00,
2013-06-23 17:25:00,90.9,73.0,29.76,SSE,156,0.0,5.0,55,0.00,,,0.00,526.11,Custom,2013-06-23 22:25:00,
2013-06-23 17:30:00,91.2,73.0,29.76,South,179,1.0,9.0,55,0.00,,,0.00,465.66,Custom,2013-06-23 22:30:00,
2013-06-23 17:35:00,91.3,74.0,29.77,SSE,167,4.0,10.0,57,0.00,,,0.00,195.78,Custom,2013-06-23 22:35:00,
2013-06-23 17:40:00,91.1,73.0,29.77,South,188,1.0,6.0,56,0.00,,,0.00,101.79,Custom,2013-06-23 22:40:00,
2013-06-23 17:45:00,90.1,72.0,29.77,South,189,0.0,10.0,55,0.00,,,0.00,92.43,Custom,2013-06-23 22:45:00,
2013-06-23 17:50:00,89.7,73.0,29.77,South,190,1.0,7.0,57,0.00,,,0.00,84.63,Custom,2013-06-23 22:50:00,
2013-06-23 17:55:00,89.1,73.0,29.77,South,177,4.0,8.0,58,0.00,,,0.00,79.56,Custom,2013-06-23 22:55:00,
2013-06-23 18:00:00,89.1,73.0,29.76,SSW,207,4.0,11.0,59,0.00,,,0.00,66.3,Custom,2013-06-23 23:00:00,
2013-06-23 18:05:00,88.8,73.0,29.76,South,171,0.0,10.0,59,0.00,,,0.00,74.88,Custom,2013-06-23 23:05:00,
2013-06-23 18:10:00,88.6,73.0,29.76,South,180,3.0,5.0,59,0.00,,,0.00,83.46,Custom,2013-06-23 23:10:00,
2013-06-23 18:15:00,88.5,73.0,29.76,South,185,0.0,7.0,60,0.00,,,0.00,66.3,Custom,2013-06-23 23:15:00,
2013-06-23 18:20:00,88.6,73.0,29.76,SSW,198,3.0,5.0,61,0.00,,,0.00,115.83,Custom,2013-06-23 23:20:00,
2013-06-23 18:25:00,88.5,72.0,29.76,South,180,7.0,9.0,59,0.00,,,0.00,60.84,Custom,2013-06-23 23:25:00,
2013-06-23 18:30:00,88.0,73.0,29.76,SSW,192,7.0,8.0,61,0.00,,,0.00,56.16,Custom,2013-06-23 23:30:00,
2013-06-23 18:35:00,87.7,73.0,29.76,South,189,5.0,6.0,61,0.00,,,0.00,69.03,Custom,2013-06-23 23:35:00,
2013-06-23 18:40:00,87.5,73.0,29.76,South,178,0.0,7.0,61,0.00,,,0.00,142.74,Custom,2013-06-23 23:40:00,
2013-06-23 18:45:00,87.5,73.0,29.76,South,180,2.0,7.0,62,0.00,,,0.00,138.06,Custom,2013-06-23 23:45:00,
2013-06-23 18:50:00,87.3,72.0,29.75,SSW,195,0.0,7.0,60,0.00,,,0.00,64.35,Custom,2013-06-23 23:50:00,
2013-06-23 18:55:00,87.5,72.0,29.75,South,184,5.0,11.0,61,0.00,,,0.00,44.46,Custom,2013-06-23 23:55:00,
2013-06-23 19:00:00,87.3,71.0,29.76,SSW,192,0.0,11.0,59,0.00,,,0.00,41.73,Custom,2013-06-24 00:00:00,
2013-06-23 19:05:00,86.5,72.0,29.76,SSE,167,0.0,4.0,61,0.00,,,0.00,38.61,Custom,2013-06-24 00:05:00,
2013-06-23 19:10:00,86.3,72.0,29.75,SW,217,2.0,8.0,62,0.00,,,0.00,36.66,Custom,2013-06-24 00:10:00,
2013-06-23 19:15:00,86.2,71.0,29.76,South,188,5.0,8.0,61,0.00,,,0.00,34.32,Custom,2013-06-24 00:15:00,
2013-06-23 19:20:00,85.9,71.0,29.75,SSW,193,0.0,5.0,61,0.00,,,0.00,33.15,Custom,2013-06-24 00:20:00,
2013-06-23 19:25:00,85.9,71.0,29.76,South,188,0.0,5.0,62,0.00,,,0.00,31.98,Custom,2013-06-24 00:25:00,
2013-06-23 19:30:00,85.8,72.0,29.76,SSW,197,4.0,5.0,63,0.00,,,0.00,31.59,Custom,2013-06-24 00:30:00,
2013-06-23 19:35:00,85.4,71.0,29.76,South,176,3.0,5.0,61,0.00,,,0.00,30.42,Custom,2013-06-24 00:35:00,
2013-06-23 19:40:00,85.4,71.0,29.76,South,177,0.0,8.0,63,0.00,,,0.00,34.32,Custom,2013-06-24 00:40:00,
2013-06-23 19:45:00,85.0,71.0,29.76,South,177,2.0,3.0,64,0.00,,,0.00,28.86,Custom,2013-06-24 00:45:00,
2013-06-23 19:50:00,84.7,71.0,29.76,South,180,0.0,4.0,64,0.00,,,0.00,24.57,Custom,2013-06-24 00:50:00,
2013-06-23 19:55:00,84.5,72.0,29.76,South,180,0.0,0.0,65,0.00,,,0.00,23.01,Custom,2013-06-24 00:55:00,
2013-06-23 20:00:00,84.3,72.0,29.77,South,179,0.0,3.0,66,0.00,,,0.00,21.45,Custom,2013-06-24 01:00:00,
2013-06-23 20:05:00,84.0,71.0,29.77,South,179,0.0,2.0,66,0.00,,,0.00,19.89,Custom,2013-06-24 01:05:00,
2013-06-23 20:10:00,83.5,72.0,29.78,South,179,0.0,0.0,68,0.00,,,0.00,18.72,Custom,2013-06-24 01:10:00,
2013-06-23 20:15:00,83.5,72.0,29.78,South,179,0.0,3.0,69,0.00,,,0.00,16.77,Custom,2013-06-24 01:15:00,
2013-06-23 20:20:00,83.6,73.0,29.78,South,179,0.0,1.0,69,0.00,,,0.00,14.43,Custom,2013-06-24 01:20:00,
2013-06-23 20:25:00,83.3,73.0,29.79,South,179,0.0,0.0,70,0.00,,,0.00,12.09,Custom,2013-06-24 01:25:00,
2013-06-23 20:30:00,82.8,73.0,29.79,South,179,0.0,0.0,71,0.00,,,0.00,10.14,Custom,2013-06-24 01:30:00,
2013-06-23 20:35:00,81.9,72.0,29.79,South,179,0.0,0.0,72,0.00,,,0.00,7.8,Custom,2013-06-24 01:35:00,
2013-06-23 20:40:00,81.7,72.0,29.80,South,179,0.0,0.0,73,0.00,,,0.00,0,Custom,2013-06-24 01:40:00,
2013-06-23 20:45:00,81.7,73.0,29.80,South,179,0.0,0.0,74,0.00,,,0.00,0,Custom,2013-06-24 01:45:00,
2013-06-23 20:50:00,81.6,72.0,29.80,South,179,0.0,0.0,73,0.00,,,0.00,0,Custom,2013-06-24 01:50:00,
2013-06-23 20:55:00,81.6,72.0,29.80,South,179,0.0,0.0,73,0.00,,,0.00,0,Custom,2013-06-24 01:55:00,
2013-06-23 21:00:00,81.5,72.0,29.80,South,179,0.0,0.0,73,0.00,,,0.00,0,Custom,2013-06-24 02:00:00,
2013-06-23 21:01:00,81.5,72.0,29.80,South,179,0.0,0.0,73,0.00,,,0.00,0,Custom,2013-06-24 02:01:00,
2013-06-23 21:06:00,81.0,72.0,29.80,South,179,0.0,0.0,73,0.00,,,0.00,0,Custom,2013-06-24 02:06:00,
2013-06-23 21:11:00,80.7,71.0,29.80,South,179,0.0,0.0,73,0.00,,,0.00,0,Custom,2013-06-24 02:11:00,
2013-06-23 21:16:00,80.6,72.0,29.80,South,179,0.0,0.0,74,0.00,,,0.00,0,Custom,2013-06-24 02:16:00,
2013-06-23 21:21:00,80.6,71.0,29.80,South,179,0.0,0.0,74,0.00,,,0.00,0,Custom,2013-06-24 02:21:00,
2013-06-23 21:26:00,80.6,72.0,29.81,South,179,2.0,0.0,74,0.00,,,0.00,0,Custom,2013-06-24 02:26:00,
2013-06-23 21:31:00,80.5,72.0,29.81,South,179,0.0,1.0,75,0.00,,,0.00,0,Custom,2013-06-24 02:31:00,
2013-06-23 21:36:00,80.4,72.0,29.81,South,179,0.0,1.0,75,0.00,,,0.00,0,Custom,2013-06-24 02:36:00,
2013-06-23 21:41:00,80.1,72.0,29.82,South,179,0.0,0.0,76,0.00,,,0.00,0,Custom,2013-06-24 02:41:00,
2013-06-23 21:46:00,79.6,72.0,29.81,South,179,0.0,2.0,76,0.00,,,0.00,0,Custom,2013-06-24 02:46:00,
2013-06-23 21:51:00,79.6,72.0,29.82,South,179,0.0,2.0,77,0.00,,,0.00,0,Custom,2013-06-24 02:51:00,
2013-06-23 21:56:00,79.4,72.0,29.82,South,179,0.0,0.0,77,0.00,,,0.00,0,Custom,2013-06-24 02:56:00,
2013-06-23 22:01:00,79.2,72.0,29.82,South,179,0.0,1.0,78,0.00,,,0.00,0,Custom,2013-06-24 03:01:00,
2013-06-23 22:06:00,79.0,71.0,29.82,South,179,0.0,0.0,77,0.00,,,0.00,0,Custom,2013-06-24 03:06:00,
2013-06-23 22:11:00,78.7,71.0,29.83,SSE,159,2.0,3.0,78,0.00,,,0.00,0,Custom,2013-06-24 03:11:00,
2013-06-23 22:16:00,78.9,71.0,29.83,South,169,0.0,5.0,78,0.00,,,0.00,0,Custom,2013-06-24 03:16:00,
2013-06-23 22:21:00,79.1,71.0,29.83,South,172,0.0,7.0,77,0.00,,,0.00,0,Custom,2013-06-24 03:21:00,
2013-06-23 22:26:00,79.6,72.0,29.83,SSW,208,0.0,7.0,77,0.00,,,0.00,0,Custom,2013-06-24 03:26:00,
2013-06-23 22:31:00,79.7,71.0,29.84,South,178,0.0,5.0,76,0.00,,,0.00,0,Custom,2013-06-24 03:31:00,
2013-06-23 22:36:00,79.7,71.0,29.83,SSW,195,3.0,4.0,76,0.00,,,0.00,0,Custom,2013-06-24 03:36:00,
2013-06-23 22:41:00,80.1,71.0,29.84,SSW,194,0.0,6.0,75,0.00,,,0.00,0,Custom,2013-06-24 03:41:00,
2013-06-23 22:46:00,80.2,72.0,29.84,South,181,2.0,6.0,76,0.00,,,0.00,0,Custom,2013-06-24 03:46:00,
2013-06-23 22:51:00,80.2,71.0,29.84,South,185,3.0,6.0,75,0.00,,,0.00,0,Custom,2013-06-24 03:51:00,
2013-06-23 22:56:00,79.8,71.0,29.84,SSW,193,0.0,5.0,75,0.00,,,0.00,0,Custom,2013-06-24 03:56:00,
2013-06-23 23:01:00,79.5,71.0,29.84,SSW,195,3.0,7.0,75,0.00,,,0.00,0,Custom,2013-06-24 04:01:00,
2013-06-23 23:02:00,79.5,71.0,29.84,SSW,195,0.0,7.0,75,0.00,,,0.00,0,Custom,2013-06-24 04:02:00,
2013-06-23 23:06:00,79.9,71.0,29.84,South,187,0.0,8.0,75,0.00,,,0.00,0,Custom,2013-06-24 04:06:00,
2013-06-23 23:11:00,80.3,71.0,29.84,South,175,2.0,9.0,74,0.00,,,0.00,0,Custom,2013-06-24 04:11:00,
2013-06-23 23:16:00,80.3,71.0,29.84,SSW,201,2.0,6.0,73,0.00,,,0.00,0,Custom,2013-06-24 04:16:00,
2013-06-23 23:21:00,80.0,71.0,29.84,South,191,0.0,7.0,73,0.00,,,0.00,0,Custom,2013-06-24 04:21:00,
2013-06-23 23:26:00,80.0,71.0,29.84,South,191,0.0,5.0,73,0.00,,,0.00,0,Custom,2013-06-24 04:26:00,
2013-06-23 23:31:00,79.7,71.0,29.85,SSW,193,4.0,5.0,74,0.00,,,0.00,0,Custom,2013-06-24 04:31:00,
2013-06-23 23:36:00,79.6,70.0,29.85,SSW,212,0.0,8.0,73,0.00,,,0.00,0,Custom,2013-06-24 04:36:00,
2013-06-23 23:41:00,79.8,70.0,29.85,South,170,0.0,7.0,73,0.00,,,0.00,0,Custom,2013-06-24 04:41:00,
2013-06-23 23:46:00,79.7,70.0,29.85,South,183,3.0,6.0,73,0.00,,,0.00,0,Custom,2013-06-24 04:46:00,
2013-06-23 23:51:00,79.7,70.0,29.85,SSW,194,0.0,7.0,72,0.00,,,0.00,0,Custom,2013-06-24 04:51:00,
2013-06-23 23:56:00,79.6,70.0,29.85,SSW,212,0.0,5.0,73,0.00,,,0.00,0,Custom,2013-06-24 04:56:00,